Shipman, VA (22971)

9:17 AM EST on February 13, 2016 (GMT -0500)
Green Acres | | Change Station
CLOSE
Current Station
Personal Weather Station
Location: Lovingston, VA
Elevation: 817 ft
Nearby Weather Stations
Active Advisory: Wind Chill Advisory

Elev 817 ft 37.77 °N, 78.87 °W | Updated 10 seconds ago

Clear
Clear
20.9 °F
Feels Like 14 °F
N
5.0
Wind Variable Wind from WNW
Gusts 17.0 mph

Today
High -- | Low -- °F
--% Chance of Precip.
Yesterday
High -- | Low -- °F
Precip. -- in
Pressure 30.25 in
Visibility 10.0 miles
Clouds Scattered Clouds 6000 ft
Windchill 14 °F
Dew Point -3 °F
Humidity 34%
Rainfall 0.00 in
Snow Depth Not available.
7:07 AM 5:51 PM
Waxing Crescent, 31% visible
METAR KCHO 131353Z VRB06G14KT 10SM SCT060 M06/M19 A3023 RMK AO2 SLP244 T10611194
Pressure 30.25 in
Visibility 10.0 miles
Clouds Scattered Clouds 6000 ft
Windchill 14 °F
Dew Point -3 °F
Humidity 34%
Rainfall 0.00 in
Snow Depth Not available.
7:07 AM 5:51 PM
Waxing Crescent, 31% visible
METAR KCHO 131353Z VRB06G14KT 10SM SCT060 M06/M19 A3023 RMK AO2 SLP244 T10611194

10-Day Weather Forecast

Almanac

Astronomy

Feb. 13, 2016 Rise Set
Actual Time
Civil Twilight
Nautical Twilight
Astronomical Twilight
Moon
Length of Visible Light
Length of Day
Tomorrow will be .
, % of the Moon is Illuminated

Today's Extremes

State Highs State Lows

Community

WunderPhotos

Upload Photos

1,892,558 photos uploaded!

WunderBlog® & News

Nearby

Air Quality

  Air Quality AQ Index Pollutant
Not available.

Snow Depth

Station Depth Elevation

Earthquake Activity

City Distance Mag. Time & Date
Minimum magnitude displayed is 2.5.

Coastal Water Temperatures

Place Temperature

Stations

Nearby Weather Stations

Station Location Temp. Windchill Dew Point Humidity Wind Precip. Elev Updated Type
                   

Watches & Warnings

Wind Chill Advisory
Issued: 3:20 AM EST Feb. 13, 2016 – National Weather Service

... Wind Chill Advisory in effect from 6 PM this evening to 6 am
EST Sunday...

The National Weather Service in Baltimore MD/Washington has
issued a Wind Chill Advisory... which is in effect from 6 PM this
evening to 6 am EST Sunday.

* Wind chills... 0 to 5 degrees below zero.

* Winds... northwest 20 to 30 mph with gusts up to 50 mph.

* Temperatures... falling into the single digits to low teens
tonight.

* Timing... late tonight through Sunday morning.

* Impacts... frost bite and hypothermia are possible if
precautions are not taken.


Precautionary/preparedness actions...

A Wind Chill Advisory means that very cold air and strong winds
will combine to generate low wind chills. This will result in
frost bite and lead to hypothermia if precautions are not taken.
If you must venture outdoors... make sure you wear a hat and
gloves.